Location: Newark
(39.6867°N, 100.6772°W)
Time: 11:57:32
(UTC+00:00)

Vanguard 2 Rocket - Visible Passes

Search period start: 15 October 2019 00:00
Search period end: 25 October 2019 00:00
Orbit: 554 x 3326 km, 32.9° (Epoch: 13 October)

Date Brightness Start Highest point End Pass type
(mag) Time Alt. Az. Time Alt. Az. Time Alt. Az.
15 Oct 10.1 01:08:10 10° WSW 01:09:17 10° SW 01:10:20 10° SW visible
18 Oct 10.4 00:18:09 10° WSW 00:23:07 13° SW 00:27:13 10° SSW visible
20 Oct 11.0 12:10:30 10° SSE 12:17:53 15° SE 12:26:18 10° E visible
22 Oct 10.7 12:20:23 10° S 12:30:34 23° SE 12:43:24 10° E visible
23 Oct 10.8 11:24:58 10° SSE 11:30:37 13° SE 11:37:08 10° ESE visible
24 Oct 10.4 12:32:05 10° SSW 12:43:23 31° SE 12:58:43 10° E visible
